Station PBFW1 - Padilla Bay Farm, Padilla Bay Reserve, WA Image indicating link to RSS feed of recent meteorological observations for station PBFW1


Conditions at PBFW1 as of
(6:30 pm PDT on 04/15/2024)
0130 GMT on 04/16/2024:
     

Click on the graph icon in the table below to see a time series plot of the last five days of that observation.

5-day plot - Wind Direction Wind Direction (WDIR):WNW ( 290 deg true )
5-day plot - Wind Speed Wind Speed (WSPD): 19.0 kts
5-day plot - Atmospheric Pressure Atmospheric Pressure (PRES):30.21 in
5-day plot - Air Temperature Air Temperature (ATMP): 51.1 °F
5-day plot - Dew Point Dew Point (DEWP): 34.7 °F
5-day plot - Wind Chill Wind Chill (CHILL): 44.6 °F
5-day plot -  Wind Speed, Wind Gust and Atmospheric Pressure Combined plot of Wind Speed, Gust, and Air Pressure
Previous observations
TIME
(PDT)
5-day plot - Wind Direction
WDIR
 
5-day plot - Wind Speed
WSPD
kts
5-day plot - Wind Gust
GST
kts
5-day plot - Wave Height
WVHT
ft
5-day plot - Dominant Wave Period
DPD
sec
5-day plot - Average Wave Period
APD
sec
5-day plot - Mean Wave Direction
MWD
 
5-day plot - Atmospheric Pressure
PRES
in
5-day plot - Pressure Tendency
PTDY
in
5-day plot - Air Temperature
ATMP
°F
5-day plot - Water Temperature
WTMP
°F
5-day plot - Dew Point
DEWP
°F
5-day plot - Salinity
SAL
psu
5-day plot - Visibility
VIS
nmi
5-day plot - Tide (above MLLW)
TIDE
ft
2024-04-15 06:15 pmWNW 17.1-----30.24- 50.9- 34.0---
2024-04-15 06:00 pmWNW 17.1-----30.24+0.00 51.4- 33.6---
2024-04-15 05:45 pmWNW 17.1-----30.24- 51.3- 31.8---
2024-04-15 05:30 pm W 18.1-----30.24- 51.3- 32.4---
2024-04-15 05:15 pmWNW 15.0-----30.24- 51.6- 33.8---
2024-04-15 05:00 pmWNW 14.0-----30.24+0.00 52.0- 34.2---
2024-04-15 04:45 pm W 12.0-----30.24- 52.5- 34.2---
2024-04-15 04:30 pm W 13.0-----30.24- 52.3- 32.9---
2024-04-15 04:15 pm W 12.0-----30.24- 52.2- 33.3---
2024-04-15 04:00 pmWNW 14.0-----30.24+0.00 52.2- 32.7---
2024-04-15 03:45 pm W 14.0-----30.24- 52.0- 32.5---
2024-04-15 03:30 pm W 12.0-----30.24- 52.2- 32.7---
2024-04-15 03:15 pmWNW 13.0-----30.24- 52.2- 32.2---
2024-04-15 03:00 pm W 13.0-----30.24+0.00 52.2- 34.3---
2024-04-15 02:45 pm W 12.0-----30.24- 52.3- 34.9---
2024-04-15 02:30 pm W 12.0-----30.24- 52.9- 36.3---
2024-04-15 02:15 pm W 9.9-----30.24- 52.7- 36.7---
2024-04-15 02:00 pm W 8.9-----30.24+0.00 52.3- 37.2---
2024-04-15 01:45 pm W 9.9-----30.24- 52.2- 37.0---
2024-04-15 01:30 pmWNW 13.0-----30.24- 51.8- 36.3---
2024-04-15 01:15 pmWNW 12.0-----30.24- 52.2- 37.9---
2024-04-15 01:00 pm W 11.1-----30.24+0.03 52.2- 37.9---
2024-04-15 12:45 pmWNW 13.0-----30.24- 52.2- 37.0---
2024-04-15 12:30 pmWNW 12.0-----30.24- 52.3- 37.8---
2024-04-15 12:15 pmWNW 12.0-----30.24- 52.9- 38.3---
2024-04-15 12:00 pm W 11.1-----30.24+0.03 52.7- 38.5---
2024-04-15 11:45 am W 11.1-----30.21- 52.3- 38.7---
2024-04-15 11:30 amWNW 8.0-----30.21- 51.4- 38.1---
2024-04-15 11:15 am W 8.9-----30.24- 51.3- 38.8---
2024-04-15 11:00 am W 8.9-----30.24+0.03 51.1- 39.4---
2024-04-15 10:45 am W 8.9-----30.24- 50.5- 39.0---
2024-04-15 10:30 am W 8.0-----30.24- 50.0- 37.9---
2024-04-15 10:15 am W 8.9-----30.24- 49.6- 38.1---
2024-04-15 10:00 am W 8.9-----30.21+0.03 49.1- 38.3---
2024-04-15 09:45 am W 8.0-----30.21- 48.7- 38.8---
2024-04-15 09:30 am W 7.0-----30.21- 48.6- 39.0---
2024-04-15 09:15 am W 8.0-----30.21- 48.6- 39.4---
2024-04-15 09:00 am W 7.0-----30.21+0.03 48.6- 39.4---
2024-04-15 08:45 am W 7.0-----30.21- 48.6- 39.7---
2024-04-15 08:30 am W 8.0-----30.21- 48.6- 39.7---
2024-04-15 08:15 am W 8.0-----30.21- 48.4- 39.9---
2024-04-15 08:00 am W 8.0-----30.21+0.06 48.2- 40.1---
2024-04-15 07:45 am W 8.9-----30.18- 48.0- 40.3---
2024-04-15 07:30 am W 9.9-----30.18- 48.0- 40.3---
2024-04-15 07:15 am W 8.9-----30.18- 47.7- 40.3---
2024-04-15 07:00 am W 8.0-----30.18+0.03 47.7- 40.3---
2024-04-15 06:45 am W 8.9-----30.18- 47.5- 40.3---
2024-04-15 06:30 am W 8.0-----30.18- 47.5- 40.3---
2024-04-15 06:15 am W 8.9-----30.18- 47.7- 40.5---
2024-04-15 06:00 am W 12.0-----30.18+0.06 48.0- 40.6---
2024-04-15 05:45 amWNW 11.1-----30.18- 48.2- 40.8---
2024-04-15 05:30 am W 8.9-----30.18- 48.2- 40.5---
2024-04-15 05:15 am W 8.9-----30.18- 48.2- 40.5---
2024-04-15 05:00 am W 8.9-----30.15+0.03 48.4- 40.3---
2024-04-15 04:45 am W 9.9-----30.15- 48.4- 40.3---
2024-04-15 04:30 am W 11.1-----30.15- 48.4- 40.6---
2024-04-15 04:15 amWNW 11.1-----30.15- 48.4- 40.6---
2024-04-15 04:00 am W 8.9-----30.15+0.06 48.2- 40.8---
2024-04-15 03:45 am W 9.9-----30.15- 48.2- 40.8---
2024-04-15 03:30 am W 8.0-----30.15- 48.4- 40.6---
2024-04-15 03:15 am W 8.9-----30.12- 48.4- 40.8---
2024-04-15 03:00 am W 11.1-----30.12+0.03 48.2- 40.8---
2024-04-15 02:45 am W 9.9-----30.12- 48.2- 41.0---
2024-04-15 02:30 am W 11.1-----30.12- 48.2- 41.0---
2024-04-15 02:15 am W 9.9-----30.12- 48.2- 41.4---
2024-04-15 02:00 am W 8.9-----30.12+0.06 48.0- 41.2---
2024-04-15 01:45 am W 6.0-----30.12- 48.0- 41.5---
2024-04-15 01:30 am W 6.0-----30.12- 47.8- 41.7---
2024-04-15 01:15 am W 5.1-----30.12- 47.5- 41.7---
2024-04-15 01:00 am SW 5.1-----30.09+0.06 47.5- 41.7---
2024-04-15 12:45 am SW 4.1-----30.09- 47.7- 42.3---
2024-04-15 12:30 am W 8.0-----30.09- 47.8- 42.6---
2024-04-15 12:15 am W 11.1-----30.09- 47.8- 42.6---
2024-04-15 12:00 am W 6.0-----30.09+0.06 48.0- 42.6---
2024-04-14 11:45 pmWNW 2.9-----30.06- 48.0- 41.9---
2024-04-14 11:30 pm W 1.0-----30.06- 48.0- 41.9---
2024-04-14 11:15 pm W 4.1-----30.06- 48.0- 41.5---
2024-04-14 11:00 pmWSW 7.0-----30.06+0.06 48.0- 41.5---
2024-04-14 10:45 pm SW 7.0-----30.06- 48.0- 41.5---
2024-04-14 10:30 pmWSW 7.0-----30.06- 48.0- 41.9---
2024-04-14 10:15 pm W 7.0-----30.03- 48.0- 42.3---
2024-04-14 10:00 pm W 8.0-----30.03+0.03 48.4- 42.3---
2024-04-14 09:45 pm W 8.9-----30.03- 48.4- 42.3---
2024-04-14 09:30 pm W 8.9-----30.03- 48.6- 41.7---
2024-04-14 09:15 pm W 4.1-----30.03- 48.9- 41.7---
2024-04-14 09:00 pm S 4.1-----30.03+0.03 49.3- 41.7---
2024-04-14 08:45 pm S 6.0-----30.03- 49.3- 41.7---
2024-04-14 08:30 pmSSW 7.0-----30.03- 49.6- 41.7---
2024-04-14 08:15 pmSSW 8.0-----30.00- 50.2- 41.9---
2024-04-14 08:00 pm SW 8.0-----30.00+0.00 50.7- 42.4---
2024-04-14 07:45 pmWSW 6.0-----30.00- 51.8- 42.1---
2024-04-14 07:30 pm SW 5.1-----30.00- 52.3- 42.6---
2024-04-14 07:15 pmWSW 4.1-----30.00- 52.7- 43.7---
2024-04-14 07:00 pm W 5.1-----30.00+0.00 52.7- 44.1---